{"data":{"norad_id":63230,"intl_designator":"2025-052W","name":"ION SCV-017","alt_names":[],"object_type":"PAYLOAD","status":"ACTIVE","operator":null,"country":"IT","launch_date":"2025-03-15","launch_site_code":"AFWTR","launch_vehicle":null,"mission":null,"orbit_class":"UNKNOWN","rcs_meters":null,"size_class":null,"mass_kg":null,"dimensions":null,"purposes":[],"wikipedia_slug":null,"has_3d_model":false,"image_url":null,"decayed_at":null,"tle_current":{"epoch":"2026-09-22T22:19:27.475104Z","epoch_age_seconds":98925,"freshness":"FRESH","line1":"1 63230U 25052W   26265.93017911  .00003057  00000+0  11222-3 0  9995","line2":"2 63230  97.3765 160.2371 0023289  65.7989 294.5682 15.28463847 84962","mean_motion":15.28463847,"eccentricity":0.0023289,"inclination_deg":97.3765,"raan_deg":160.2371,"arg_perigee_deg":65.7989,"mean_anomaly_deg":294.5682,"bstar":0.00011222,"rev_number":8496,"period_min":94.212238177983,"perigee_km":464.4309598635,"apogee_km":496.37667127425,"semimajor_km":6858.5408155689,"source":"CELESTRAK","updated_at":"2026-09-23T09:00:21.903070Z"}}}